EZY520 EGNS-EGGP

Flight info

Callsign EZY520
Flight time 0h 32m
Altitude 15000
Route TIMIS Q39 DANDI DCT PENIL
Aircraft A320/M-SDE3FGHIRWY/LB1

Departure

Time 2026-04-25 16:35
Airport Isle of Man Airport (EGNS)

Arrival

Time 2026-04-25 17:07
Airport Liverpool John Lennon Airport (EGGP)
Time Latitude Longitude Altitude Speed Heading
2026-04-25 16:11 54.08630 -4.63265 36 ft 0 kts 224°
2026-04-25 16:29 54.08636 -4.63254 37 ft 4 kts 224°
2026-04-25 16:29 54.08652 -4.63228 37 ft 4 kts 221°
2026-04-25 16:29 54.08672 -4.63214 33 ft 4 kts 148°
2026-04-25 16:30 54.08686 -4.63234 36 ft 0 kts 133°
2026-04-25 16:31 54.08685 -4.63233 36 ft 2 kts 133°
2026-04-25 16:32 54.08648 -4.63168 35 ft 13 kts 133°
2026-04-25 16:32 54.08574 -4.63044 38 ft 16 kts 148°
2026-04-25 16:32 54.08461 -4.62993 37 ft 18 kts 168°
2026-04-25 16:32 54.08409 -4.63052 37 ft 8 kts 258°
2026-04-25 16:33 54.08386 -4.63220 37 ft 18 kts 261°
2026-04-25 16:33 54.08363 -4.63440 37 ft 20 kts 250°
2026-04-25 16:33 54.08317 -4.63678 35 ft 22 kts 243°
2026-04-25 16:33 54.08229 -4.63891 36 ft 19 kts 204°
2026-04-25 16:34 54.08147 -4.63811 34 ft 12 kts 86°
2026-04-25 16:34 54.08174 -4.63609 34 ft 43 kts 78°
2026-04-25 16:34 54.08306 -4.62530 36 ft 139 kts 78°
2026-04-25 16:34 54.08545 -4.60637 589 ft 172 kts 78°
2026-04-25 16:35 54.08790 -4.58598 1569 ft 181 kts 82°
2026-04-25 16:35 54.08528 -4.56403 2007 ft 206 kts 124°
2026-04-25 16:35 54.07327 -4.54914 2537 ft 232 kts 165°
2026-04-25 16:35 54.05640 -4.54897 3197 ft 253 kts 188°
2026-04-25 16:36 54.03893 -4.55553 4214 ft 260 kts 194°
2026-04-25 16:36 54.03326 -4.55819 4571 ft 261 kts 195°
2026-04-25 16:36 54.00363 -4.57322 6337 ft 269 kts 197°
2026-04-25 16:36 53.98552 -4.58221 7320 ft 273 kts 195°
2026-04-25 16:37 53.96652 -4.58542 8270 ft 278 kts 174°
2026-04-25 16:37 53.94789 -4.57613 9228 ft 283 kts 152°
2026-04-25 16:37 53.93249 -4.55509 10197 ft 289 kts 130°
2026-04-25 16:37 53.92049 -4.52654 10734 ft 308 kts 125°
2026-04-25 16:38 53.90801 -4.49562 11289 ft 324 kts 125°
2026-04-25 16:38 53.89522 -4.46379 12114 ft 330 kts 125°
2026-04-25 16:38 53.88222 -4.43144 12990 ft 334 kts 125°
2026-04-25 16:38 53.86899 -4.39868 13852 ft 338 kts 125°
2026-04-25 16:39 53.85558 -4.36567 14613 ft 343 kts 125°
2026-04-25 16:39 53.84192 -4.33223 15046 ft 346 kts 125°
2026-04-25 16:39 53.82819 -4.29869 15181 ft 346 kts 125°
2026-04-25 16:39 53.81483 -4.26607 15210 ft 329 kts 125°
2026-04-25 16:40 53.80194 -4.23454 15204 ft 323 kts 125°
2026-04-25 16:40 53.78934 -4.20380 15215 ft 322 kts 126°
2026-04-25 16:40 53.77640 -4.17237 15209 ft 321 kts 126°
2026-04-25 16:40 53.76365 -4.14141 15208 ft 321 kts 126°
2026-04-25 16:41 53.75088 -4.11043 15213 ft 321 kts 126°
2026-04-25 16:41 53.74243 -4.08995 15223 ft 321 kts 126°
2026-04-25 16:41 53.71253 -4.01771 15212 ft 321 kts 126°
2026-04-25 16:42 53.69975 -3.98681 15220 ft 321 kts 126°
2026-04-25 16:42 53.68715 -3.95573 15218 ft 321 kts 121°
2026-04-25 16:42 53.67742 -3.92099 15218 ft 338 kts 113°
2026-04-25 16:42 53.66629 -3.88563 15221 ft 345 kts 123°
2026-04-25 16:43 53.65353 -3.85171 14941 ft 340 kts 123°
2026-04-25 16:43 53.64084 -3.81826 14570 ft 337 kts 123°
2026-04-25 16:43 53.62821 -3.78513 14188 ft 334 kts 123°
2026-04-25 16:43 53.61567 -3.75230 13789 ft 332 kts 123°
2026-04-25 16:44 53.60324 -3.71978 13359 ft 329 kts 123°
2026-04-25 16:44 53.59086 -3.68748 12940 ft 327 kts 123°
2026-04-25 16:44 53.57858 -3.65542 12531 ft 325 kts 123°
2026-04-25 16:44 53.56640 -3.62363 12122 ft 322 kts 123°
2026-04-25 16:45 53.55430 -3.59208 11714 ft 320 kts 123°
2026-04-25 16:45 53.54230 -3.56078 11318 ft 318 kts 123°
2026-04-25 16:45 53.53034 -3.52966 10925 ft 315 kts 123°
2026-04-25 16:45 53.51851 -3.49890 10538 ft 313 kts 123°
2026-04-25 16:46 53.50671 -3.46829 10163 ft 311 kts 123°
2026-04-25 16:46 53.49502 -3.43798 9738 ft 308 kts 123°
2026-04-25 16:46 53.48356 -3.40829 9325 ft 306 kts 123°
2026-04-25 16:46 53.47965 -3.39818 9182 ft 305 kts 123°
2026-04-25 16:47 53.46056 -3.34901 8494 ft 300 kts 123°
2026-04-25 16:47 53.44922 -3.31986 8096 ft 297 kts 123°
2026-04-25 16:47 53.43816 -3.29078 7695 ft 294 kts 119°
2026-04-25 16:47 53.43118 -3.25890 7379 ft 289 kts 106°
2026-04-25 16:48 53.42584 -3.22696 7135 ft 281 kts 106°
2026-04-25 16:48 53.42058 -3.19577 6898 ft 276 kts 107°
2026-04-25 16:48 53.41534 -3.16496 6649 ft 274 kts 107°
2026-04-25 16:48 53.41011 -3.13430 6389 ft 273 kts 107°
2026-04-25 16:49 53.40492 -3.10390 6123 ft 268 kts 107°
2026-04-25 16:49 53.39987 -3.07430 5876 ft 260 kts 106°
2026-04-25 16:49 53.39759 -3.04477 5629 ft 254 kts 92°
2026-04-25 16:49 53.39759 -3.01553 5368 ft 248 kts 90°
2026-04-25 16:50 53.39781 -2.98705 5118 ft 241 kts 90°
2026-04-25 16:50 53.39807 -2.95933 4861 ft 235 kts 90°
2026-04-25 16:50 53.39837 -2.93221 4602 ft 232 kts 90°
2026-04-25 16:50 53.39865 -2.90528 4345 ft 229 kts 90°
2026-04-25 16:51 53.39891 -2.87868 4086 ft 228 kts 90°
2026-04-25 16:51 53.39914 -2.85225 3838 ft 226 kts 90°
2026-04-25 16:51 53.39935 -2.82599 3572 ft 225 kts 90°
2026-04-25 16:51 53.39942 -2.81712 3502 ft 225 kts 90°
2026-04-25 16:52 53.39978 -2.77368 3072 ft 224 kts 90°
2026-04-25 16:52 53.39997 -2.74754 2811 ft 225 kts 90°
2026-04-25 16:52 53.40019 -2.72130 2552 ft 225 kts 90°
2026-04-25 16:52 53.40042 -2.69523 2281 ft 223 kts 90°
2026-04-25 16:53 53.40054 -2.64465 1998 ft 206 kts 98°
2026-04-25 16:53 53.39746 -2.62963 2014 ft 201 kts 123°
2026-04-25 16:53 53.38690 -2.61515 2014 ft 200 kts 161°
2026-04-25 16:54 53.37340 -2.61198 2011 ft 193 kts 177°
2026-04-25 16:54 53.36022 -2.61207 2021 ft 187 kts 182°
2026-04-25 16:54 53.34840 -2.61965 2019 ft 187 kts 221°
2026-04-25 16:54 53.34297 -2.63911 2034 ft 192 kts 264°
2026-04-25 16:55 53.34240 -2.66114 1981 ft 184 kts 264°
2026-04-25 16:55 53.34132 -2.68191 1803 ft 175 kts 264°
2026-04-25 16:55 53.34034 -2.70199 1590 ft 170 kts 264°
2026-04-25 16:55 53.33946 -2.72128 1365 ft 162 kts 264°
2026-04-25 16:56 53.33863 -2.73953 1154 ft 154 kts 264°
2026-04-25 16:56 53.33784 -2.75706 960 ft 149 kts 263°
2026-04-25 16:56 53.33708 -2.77395 785 ft 143 kts 265°
2026-04-25 16:56 53.33637 -2.79025 616 ft 138 kts 266°
2026-04-25 16:57 53.33556 -2.80640 454 ft 140 kts 266°
2026-04-25 16:57 53.33498 -2.81709 344 ft 138 kts 267°
2026-04-25 16:57 53.33410 -2.83845 100 ft 132 kts 266°
2026-04-25 16:57 53.33333 -2.85302 153 ft 137 kts 266°
2026-04-25 16:58 53.33247 -2.86947 964 ft 147 kts 263°
2026-04-25 16:58 53.33160 -2.88706 1704 ft 157 kts 265°
2026-04-25 16:58 53.33440 -2.90608 1966 ft 187 kts 303°
2026-04-25 16:58 53.34536 -2.92033 2009 ft 217 kts 342°
2026-04-25 16:59 53.36069 -2.92445 2009 ft 228 kts 358°
2026-04-25 16:59 53.37658 -2.92405 2010 ft 229 kts 15°
2026-04-25 16:59 53.39028 -2.91147 2002 ft 225 kts 49°
2026-04-25 16:59 53.39733 -2.88878 2007 ft 221 kts 81°
2026-04-25 17:00 53.39873 -2.86323 2007 ft 221 kts 89°
2026-04-25 17:00 53.39917 -2.83757 2003 ft 221 kts 90°
2026-04-25 17:00 53.39951 -2.81178 2010 ft 222 kts 91°
2026-04-25 17:00 53.39985 -2.78600 2004 ft 221 kts 90°
2026-04-25 17:01 53.40014 -2.76018 2010 ft 221 kts 91°
2026-04-25 17:01 53.40044 -2.73447 2005 ft 221 kts 90°
2026-04-25 17:01 53.40070 -2.70878 2007 ft 220 kts 90°
2026-04-25 17:01 53.40096 -2.68311 2009 ft 219 kts 90°
2026-04-25 17:02 53.40122 -2.65836 2003 ft 206 kts 90°
2026-04-25 17:02 53.40132 -2.63477 2006 ft 202 kts 96°
2026-04-25 17:02 53.39618 -2.61375 2004 ft 192 kts 134°
2026-04-25 17:02 53.38894 -2.60532 2010 ft 185 kts 160°
2026-04-25 17:03 53.37235 -2.60221 2020 ft 182 kts 179°
2026-04-25 17:03 53.35970 -2.60287 2010 ft 182 kts 189°
2026-04-25 17:03 53.34855 -2.61257 2011 ft 186 kts 226°
2026-04-25 17:03 53.34329 -2.63227 2017 ft 193 kts 263°
2026-04-25 17:04 53.34233 -2.65551 2011 ft 200 kts 265°
2026-04-25 17:04 53.34134 -2.67863 1847 ft 197 kts 264°
2026-04-25 17:04 53.34033 -2.70123 1596 ft 192 kts 265°
2026-04-25 17:04 53.33935 -2.72336 1334 ft 189 kts 264°
2026-04-25 17:05 53.33840 -2.74468 1097 ft 177 kts 264°
2026-04-25 17:05 53.33668 -2.78277 678 ft 151 kts 265°
2026-04-25 17:05 53.33592 -2.79964 513 ft 143 kts 268°
2026-04-25 17:06 53.33506 -2.81569 359 ft 137 kts 266°
2026-04-25 17:06 53.33440 -2.83149 156 ft 134 kts 268°
2026-04-25 17:06 53.33377 -2.84630 85 ft 114 kts 266°
2026-04-25 17:06 53.33339 -2.85491 87 ft 50 kts 265°
2026-04-25 17:07 53.33315 -2.86026 85 ft 43 kts 265°
2026-04-25 17:07 53.33335 -2.86402 86 ft 25 kts 328°
2026-04-25 17:07 53.33462 -2.86380 87 ft 11 kts 66°
2026-04-25 17:07 53.33510 -2.86317 87 ft 9 kts
2026-04-25 17:08 53.33560 -2.86303 90 ft 8 kts 45°
2026-04-25 17:08 53.33586 -2.86136 85 ft 19 kts 86°
2026-04-25 17:08 53.33595 -2.85916 87 ft 18 kts 86°
2026-04-25 17:08 53.33601 -2.85721 87 ft 16 kts 87°
2026-04-25 17:09 53.33607 -2.85563 85 ft 12 kts 86°
2026-04-25 17:09 53.33623 -2.85451 89 ft 9 kts 43°
2026-04-25 17:09 53.33657 -2.85440 89 ft 2 kts
2026-04-25 17:09 53.33666 -2.85439 88 ft 0 kts